カタログに戻る

STARLINK DEPLOYMENT RAIL

運用中SSO
NORAD 47424·DEBRIS·🇺🇸 United States
この衛星名は、まだ公式ソースで確認されていません。

打ち上げ Jan 24, 2021 から Cape Canaveral Space Force Station

Loading…

次のパス (今後24時間)

TLE

最新Source: Space-Track

元期: Sep 14, 2026, 21:55 UTC

1 47424U 21006M   26257.91365701  .00004892  00000-0  14991-3 0  9994
2 47424  97.2144 301.5470 0008807 233.8902 126.1527 15.34216099313359

AllMySatでSTARLINK DEPLOYMENT RAILをリアルタイム追跡

Download on the App Store